Location: Blenheim
(48.6355°N, 10.6471°E)
Time: 01:21:24
(UTC+00:00)

Daily predictions for brighter satellites

Satellite Brightness Start Highest point End
(mag) Time Altitude Azimuth Time Altitude Azimuth Time Altitude Azimuth
STARLINK-1105 3.6 00:00:03 10° WNW 00:03:06 52° NNE 00:06:07 10° E
STARLINK-1209 3.2 00:00:17 10° WNW 00:03:25 64° NNE 00:06:34 10° ESE
STARLINK-1247 3.6 00:00:57 10° WNW 00:04:01 52° NNE 00:07:05 10° E
STARLINK-1227 3.6 00:01:25 10° WNW 00:04:29 52° NNE 00:07:31 10° E
ATLAS CENTAUR R/B 3.0 00:02:47 10° NW 00:04:53 31° NNE 00:08:31 10° E
STARLINK-1226 3.6 00:02:16 10° WNW 00:05:21 53° NNE 00:08:24 10° E
STARLINK-1215 3.6 00:03:12 10° WNW 00:06:17 54° NNE 00:09:22 10° E
Nadezhda 2 Rocket 4.4 00:04:33 33° S 00:07:30 83° E 00:13:39 10° N
STARLINK-1217 3.5 00:04:58 10° WNW 00:08:03 55° NNE 00:11:07 10° E
STARLINK-1229 3.5 00:05:54 10° WNW 00:08:59 55° NNE 00:12:04 10° E
STARLINK-1270 3.5 00:06:45 10° WNW 00:09:51 56° NNE 00:12:56 10° E
GEOS 3 Rocket 3.6 00:07:39 29° SSE 00:10:21 68° SW 00:15:39 10° NW
Cosmos 1726 3.7 00:07:45 10° NW 00:10:42 22° W 00:10:54 22° W
STARLINK-1189 3.5 00:08:36 10° WNW 00:11:41 57° NNE 00:14:46 10° E
Cosmos 2058 Rocket 3.1 00:07:39 10° N 00:12:04 79° E 00:13:46 38° SSE
STARLINK-1188 3.4 00:09:29 10° WNW 00:12:34 58° NNE 00:15:40 10° E
Meteor 1-29 2.7 00:09:42 10° NNE 00:13:07 85° WNW 00:13:32 67° SSW
STARLINK-1235 3.1 00:10:10 10° WNW 00:13:16 67° NNE 00:16:21 10° ESE
STARLINK-1187 3.3 00:10:35 10° WNW 00:13:40 63° NNE 00:16:45 10° ESE
COSMOS 2455 2.8 00:11:39 33° SSW 00:14:26 74° ESE 00:20:28 10° NE
Cosmos 2228 3.3 00:10:25 10° NNW 00:14:34 52° W 00:15:32 42° SW
STARLINK-1191 3.4 00:11:57 10° WNW 00:15:02 59° NNE 00:18:07 10° E
SJ 16-02 3.7 00:12:16 10° N 00:15:43 22° NE 00:19:09 10° ESE
STARLINK-1221 3.4 00:12:50 10° WNW 00:15:55 60° NNE 00:18:59 10° ESE
STARLINK-1222 3.3 00:13:43 10° WNW 00:16:48 60° NNE 00:19:53 10° ESE
STARLINK-1214 3.3 00:14:39 10° WNW 00:17:43 61° NNE 00:20:47 10° ESE
Cosmos 1953 4.1 00:16:06 10° NW 00:18:54 18° W 00:19:26 18° W
STARLINK-1197 4.5 00:15:19 10° WNW 00:19:23 51° NNE 00:23:26 10° E
SL-14 R/B 3.4 00:18:39 44° SSE 00:19:41 65° E 00:23:31 10° NNE
Cosmos 1340 Rocket 4.3 00:17:25 10° NW 00:20:38 23° W 00:21:08 23° WSW
IRAS Rocket 4.2 00:17:53 30° S 00:20:47 79° WSW 00:26:24 10° NNW
Okean 1-7 Rocket 3.5 00:22:03 40° S 00:23:37 86° ESE 00:28:10 10° N
Cosmos 1300 2.7 00:20:02 10° N 00:23:51 76° E 00:25:04 41° SSE
Cosmos 1174 3.1 00:23:33 66° S 00:23:55 79° SE 00:27:35 10° NE
STARLINK-1198 4.4 00:20:16 10° WNW 00:24:21 53° NNE 00:28:25 10° E
Cosmos 921 Rocket 3.6 00:23:34 32° SSE 00:25:01 44° ESE 00:29:07 10° NNE
BREEZE M DEB (TANK) 2.3 00:26:49 52° E 00:26:49 52° E 00:29:24 10° E
COSMOS 2487 3.4 00:24:24 10° NW 00:27:18 31° W 00:27:18 31° W
STARLINK-1199 4.4 00:25:18 10° WNW 00:29:23 54° NNE 00:33:27 10° E
Cosmos 1626 Rocket 4.3 00:29:36 26° SSE 00:31:34 45° E 00:35:41 10° NNE
Cosmos 2219 3.9 00:27:05 10° NNW 00:32:39 53° NE 00:38:09 10° SE
STARLINK-1210 4.3 00:30:16 10° WNW 00:34:21 56° NNE 00:38:27 10° E
Cosmos 1626 2.0 00:34:31 48° SSW 00:35:28 79° W 00:39:12 10° N
STARLINK-60 2.9 00:36:27 62° SSE 00:36:33 62° SSE 00:39:45 10° ENE
Cosmos 1656 Rocket 4.4 00:33:51 21° WSW 00:37:23 45° NW 00:42:45 10° NNE
STARLINK-1219 4.2 00:35:15 10° WNW 00:39:21 58° NNE 00:43:27 10° E
Nadezhda 1 Rocket 4.0 00:35:11 10° N 00:41:22 81° E 00:45:52 20° SSE
FALCON 9 R/B 3.8 00:38:25 26° SSW 00:41:48 36° SSE 00:59:28 10° ESE
STARLINK-1211 4.2 00:40:13 10° WNW 00:44:20 60° NNE 00:48:26 10° E
MOZ.5/SAFIR/RUBIN 5/SL-8 3.7 00:44:16 27° SSE 00:46:48 85° WSW 00:51:29 10° NNW
UNK 3.9 00:44:00 21° SSE 00:47:05 74° ENE 00:51:42 10° N
Cosmos 220 Rocket 4.4 00:46:16 31° S 00:48:10 57° ESE 00:52:32 10° NNE
Cosmos 2297 Rocket 2.8 00:42:45 10° NNW 00:48:21 56° ENE 00:53:53 10° SE
STARLINK-1245 4.1 00:45:13 10° WNW 00:49:20 63° NNE 00:53:27 10° E
Cosmos 1812 Rocket 4.0 00:46:50 10° N 00:51:18 61° ENE 00:54:30 18° SSE
SL-4 R/B 2.3 00:49:12 29° SW 00:51:39 70° SSE 00:56:22 10° ENE
CZ-4B R/B 4.3 00:46:51 10° NNE 00:51:48 45° E 00:55:16 19° SSE
Cosmos 1437 2.4 00:52:48 57° SSW 00:53:18 81° W 00:56:20 10° N
STARLINK-1233 4.0 00:50:11 10° WNW 00:54:19 65° NNE 00:58:27 10° ESE
SL-19 R/B 4.4 00:51:32 10° N 00:56:50 61° WNW 01:00:03 25° SW
ATLAS CENTAUR R/B 1.7 00:56:56 27° WSW 00:59:10 62° NW 01:03:16 10° NNE
STARLINK-1204 3.9 00:55:11 10° WNW 00:59:19 68° NNE 01:03:27 10° ESE
Timation 2 Rocket 4.1 00:53:58 10° NW 01:00:11 56° WSW 01:04:30 19° S
SL-16 R/B 2.5 00:56:01 17° SSE 01:00:52 80° WSW 01:07:06 10° NNW
NOSS 3-4 (A) 4.0 00:57:31 16° WSW 01:02:18 54° NW 01:08:40 10° NE
NOSS 3-4 (C) 4.0 00:57:37 16° WSW 01:02:23 55° NW 01:08:46 10° NE
BREEZE-M R/B 3.3 01:01:07 30° SSW 01:02:33 40° SSE 01:05:27 10° E
FALCON 9 DEB 3.9 01:02:08 33° SSE 01:02:42 36° SE 01:05:54 10° ENE
STARLINK-1238 3.9 01:00:08 10° WNW 01:04:17 71° NNE 01:08:25 10° ESE
Cosmos 1602 Rocket 3.6 01:01:57 27° S 01:04:17 76° E 01:08:36 10° NNE
STARLINK-29 3.1 01:04:34 44° SSW 01:05:13 55° SSE 01:08:22 10° ENE
Cosmos 1455 3.0 01:02:37 10° N 01:06:16 47° ENE 01:09:23 13° SSE
ATLAS 3B R/B 3.1 01:01:08 10° NW 01:07:29 43° WSW 01:12:43 16° S
BREEZE-M DEB (TANK) 3.8 01:09:30 15° SE 01:09:30 15° SE 01:10:29 10° E
STARLINK-1201 3.8 01:05:08 10° WNW 01:09:17 75° NNE 01:13:26 10° ESE
IRS-1D 4.4 01:05:52 10° NNE 01:11:00 46° E 01:15:17 14° SSE
CENTAUR R/B 4.1 01:04:28 10° WNW 01:11:02 27° WSW 01:14:47 20° SW
GP-B 3.8 01:08:08 10° N 01:12:30 51° E 01:16:11 14° SSE
BREEZE-M DEB (TANK) 0.9 01:12:38 34° WSW 01:13:34 88° S 01:15:53 10° ENE
Meteor 2-1 Rocket 4.1 01:08:05 10° NNW 01:13:37 80° W 01:18:04 16° S
STARLINK-1206 3.7 01:10:07 10° WNW 01:14:17 79° NNE 01:18:25 10° ESE
Cosmos-2242 3.9 01:11:43 10° N 01:15:52 47° ENE 01:19:59 10° SSE
Cosmos 1745 Rocket 4.0 01:12:45 22° SSW 01:16:47 68° W 01:22:56 10° N
STARLINK-1205 3.6 01:15:05 10° WNW 01:19:15 83° NNE 01:23:24 10° ESE
RESURS DK-1 2.7 01:19:17 24° SW 01:21:33 55° WNW 01:25:39 10° NNE
SL-08 R/B 4.4 01:17:57 10° SE 01:22:23 44° ENE 01:26:48 10° N
Cosmos 2181 Rocket 4.4 01:16:05 10° N 01:22:30 68° ENE 01:28:54 10° SSE
Cosmos 1356 Rocket 4.0 01:19:57 10° NNW 01:23:51 41° W 01:25:49 24° SSW
Cosmos 2227 Rocket 2.2 01:18:16 10° NNW 01:24:00 86° ENE 01:29:41 10° SSE
STARLINK-1218 3.6 01:20:03 10° WNW 01:24:13 87° NNE 01:28:23 10° ESE
CZ-2D R/B 2.1 01:21:21 10° NNE 01:26:38 74° WNW 01:30:15 20° SSW
Cosmos 1763 Rocket 4.2 01:23:45 15° S 01:27:44 45° ESE 01:32:35 10° NE
Cosmos 1697 Rocket 3.9 01:23:12 11° SSE 01:28:00 34° ESE 01:33:04 10° NE
STARLINK-1254 3.6 01:25:03 10° WNW 01:29:13 89° SSW 01:33:22 10° ESE
ADEOS II 2.8 01:24:11 10° NNE 01:29:19 50° E 01:34:07 12° S
Cosmos 1703 4.0 01:26:48 15° SSE 01:29:53 49° E 01:33:43 10° NNE
ATLAS 2AS CENTAUR R/B 3.8 01:23:49 10° WSW 01:31:30 47° NW 01:39:02 10° NE
CZ-4C R/B 4.4 01:30:46 23° SW 01:32:34 32° W 01:36:29 10° NNW
STARLINK-1231 3.5 01:30:03 10° WNW 01:34:13 84° SSW 01:38:21 10° ESE
STARLINK-1228 3.9 01:32:48 10° W 01:35:45 29° SW 01:38:41 10° SSE
Resurs 1-4 Rocket 2.3 01:31:08 10° N 01:36:22 61° WNW 01:40:11 18° SW
STARLINK-1234 3.7 01:34:14 10° W 01:36:58 27° SW 01:37:02 27° SW
STARLINK-1212 3.4 01:35:30 10° WNW 01:38:23 35° SW 01:41:15 10° SSE
STARLINK-1105 3.4 01:35:59 10° WNW 01:38:50 34° SW 01:41:41 10° SSE
STARLINK-1232 3.5 01:35:02 10° WNW 01:39:11 80° SSW 01:43:20 10° ESE
STARLINK-1209 4.0 01:36:33 10° W 01:38:42 24° WSW 01:38:42 24° WSW
STARLINK-1247 3.4 01:36:53 10° WNW 01:39:46 34° SW 01:42:38 10° SSE
STARLINK-1227 3.4 01:37:21 10° WNW 01:40:12 33° SW 01:43:02 10° SSE
USA 81 4.1 01:36:19 18° SSW 01:40:12 66° W 01:45:29 10° N
STARLINK-1226 3.5 01:38:13 10° WNW 01:41:05 33° SW 01:43:55 10° SSE
STARLINK-1224 4.5 01:37:16 10° WNW 01:41:20 52° NNE 01:45:23 10° E
ARIANE 5 R/B 3.6 01:36:37 10° NNE 01:41:25 40° E 01:46:06 10° SSE
STARLINK-52 2.9 01:39:41 22° WSW 01:41:38 90° NNW 01:44:51 10° ENE
STARLINK-1215 3.5 01:39:10 10° WNW 01:42:01 33° SW 01:44:51 10° SSE
Cosmos 1758 Rocket 3.5 01:39:23 17° S 01:42:39 90° W 01:47:03 10° N
STARLINK-1217 3.5 01:40:56 10° WNW 01:43:46 32° SW 01:46:35 10° SSE
NPP 3.8 01:38:28 10° N 01:43:48 62° WNW 01:47:57 17° SSW
STARLINK-1208 3.5 01:40:00 10° WNW 01:44:08 75° SSW 01:48:16 10° SE
STARLINK-1229 3.6 01:41:52 10° WNW 01:44:41 31° SW 01:47:30 10° SSE
H-2A R/B 3.6 01:41:08 10° SE 01:45:08 38° ENE 01:49:13 10° N
STARLINK-1270 3.6 01:42:44 10° WNW 01:45:33 31° SW 01:48:21 10° SSE
STARLINK-1225 4.4 01:42:15 10° WNW 01:46:20 54° NNE 01:50:25 10° E
STARLINK-1189 3.6 01:44:35 10° W 01:47:23 30° SW 01:50:09 10° SSE
STARLINK-1188 3.7 01:45:29 10° W 01:48:15 29° SW 01:51:02 10° SSE
STARLINK-1235 4.0 01:46:18 10° W 01:48:51 23° SW 01:51:24 10° SSE
Cosmos 1898 Rocket 3.5 01:43:47 10° NNW 01:49:08 73° WSW 01:54:25 10° SSE
STARLINK-1271 3.5 01:45:00 10° WNW 01:49:08 71° SSW 01:53:15 10° SE
STARLINK-1187 3.8 01:46:40 10° W 01:49:19 26° SW 01:51:57 10° SSE
STARLINK-1191 3.7 01:47:59 10° W 01:50:42 28° SW 01:53:24 10° SSE
Lacrosse 4 Rocket 2.5 01:46:45 10° NNW 01:51:01 50° NE 01:55:10 10° SE
Starlink 7 placeholder 3.7 01:49:43 12° WNW 01:51:14 26° NNW 01:53:01 10° NE
Meteor 1-21 Rocket 4.3 01:46:49 16° SSW 01:51:16 66° WNW 01:56:57 10° N
STARLINK-1230 4.4 01:47:14 10° WNW 01:51:19 56° NNE 01:55:25 10° E
STARLINK-1221 3.7 01:48:51 10° W 01:51:34 27° SW 01:54:16 10° SSE
STARLINK-1222 3.8 01:49:46 10° W 01:52:28 27° SW 01:55:09 10° SSE
Cosmos 1656 3.7 01:48:20 16° SSW 01:52:58 88° ESE 01:58:38 10° NNE
STARLINK-1214 3.8 01:50:41 10° W 01:53:22 27° SW 01:56:02 10° SSE
STARLINK-1154 3.5 01:50:00 10° WNW 01:54:06 66° SSW 01:58:13 10° SE
SJ 16-02 1.6 01:50:18 10° NNW 01:54:36 51° WSW 01:58:53 10° S
Cosmos 2285 Rocket 4.1 01:48:11 10° NNW 01:54:38 87° ENE 02:00:59 10° SSE
IDEFIX/ARIANE 42P 4.3 01:50:06 10° NNE 01:54:41 29° E 01:59:15 10° SSE
CZ-4C R/B 2.9 01:50:43 13° S 01:54:56 44° ESE 02:00:30 10° NE
Cosmos 2084 3.8 01:52:18 16° SW 01:55:48 64° NW 02:00:16 10° NE
STARLINK-1243 4.3 01:52:13 10° WNW 01:56:19 57° NNE 02:00:25 10° E
Cosmos 468 Rocket 3.9 01:52:22 15° SSW 01:56:36 89° W 02:01:47 10° NNE
Cosmos 1953 Rocket 3.7 01:54:38 11° S 01:58:58 76° E 02:03:26 10° NNE
STARLINK-1197 3.6 01:54:58 10° WNW 01:59:04 62° SSW 02:03:09 10° SE
Cosmos 1937 Rocket 3.5 01:54:09 10° NNW 01:59:24 80° WSW 02:04:40 10° SSE
COSMOS 2455 4.3 01:55:42 10° W 02:00:56 30° NW 02:06:13 10° NNE
Cosmos 2369 4.2 01:55:55 11° S 02:01:16 57° ESE 02:06:49 10° NE
STARLINK-1236 4.2 01:57:12 10° WNW 02:01:19 60° NNE 02:05:25 10° E
Meteor 2-10 Rocket 4.0 01:56:16 10° NNW 02:01:20 45° W 02:06:01 11° SSW
STARLINK-1198 3.6 01:59:56 10° WNW 02:04:00 58° SSW 02:08:04 10° SE
Cosmos 1709 Rocket 4.3 02:01:48 14° SSW 02:07:00 51° WNW 02:13:00 10° N
STARLINK-1199 3.7 02:04:58 10° WNW 02:09:01 54° SSW 02:13:03 10° SE
Iridium 2 4.4 02:07:03 10° N 02:10:45 53° E 02:14:25 10° SSE
STARLINK-1269 4.1 02:07:09 10° WNW 02:11:17 64° NNE 02:15:24 10° ESE
STARLINK-60 4.1 02:09:45 10° W 02:12:50 41° N 02:15:55 10° ENE
STARLINK-1210 3.8 02:09:56 10° WNW 02:13:58 50° SW 02:17:57 10° SE
STARLINK-1200 4.0 02:12:09 10° WNW 02:16:18 67° NNE 02:20:25 10° ESE
Cosmos 2219 4.1 02:11:44 10° NW 02:16:31 29° WSW 02:21:16 10° SSW
STARLINK-1320 2.9 02:14:52 14° SW 02:17:27 69° SSE 02:20:33 10° ENE
STARLINK-1322 2.9 02:15:11 14° SW 02:17:46 69° SSE 02:20:53 10° ENE
STARLINK-1324 2.9 02:15:32 14° SW 02:18:08 70° SSE 02:21:14 10° ENE
STARLINK-1294 2.9 02:15:47 14° SW 02:18:24 70° SSE 02:21:33 10° ENE
STARLINK-1261 2.9 02:16:09 14° SW 02:18:46 70° SSE 02:21:54 10° ENE
STARLINK-1219 3.8 02:14:56 10° WNW 02:18:55 46° SW 02:22:54 10° SE
STARLINK-1325 2.9 02:16:30 13° SW 02:19:09 71° SSE 02:22:15 10° ENE
STARLINK-1333 2.9 02:16:48 13° SW 02:19:27 71° SSE 02:22:34 10° ENE
STARLINK-1334 2.9 02:17:07 13° SW 02:19:47 72° SSE 02:22:54 10° ENE
STARLINK-1326 2.9 02:17:28 13° SW 02:20:08 72° SSE 02:23:15 10° ENE
Cosmos 1980 Rocket 3.0 02:14:52 10° S 02:20:12 47° ESE 02:25:35 10° NE
STARLINK-1323 2.9 02:17:47 13° SW 02:20:28 72° SSE 02:23:36 10° ENE
STARLINK-1338 3.2 02:17:39 13° SW 02:20:42 68° SSE 02:24:10 10° ENE
STARLINK-1349 2.9 02:18:06 13° SW 02:20:48 73° SSE 02:23:56 10° ENE
STARLINK-1336 2.9 02:18:28 13° SW 02:21:10 73° SSE 02:24:17 10° ENE
STARLINK-1192 4.0 02:17:08 10° WNW 02:21:17 70° NNE 02:25:25 10° ESE
STARLINK-1331 2.9 02:18:45 13° SW 02:21:29 74° SSE 02:24:36 10° ENE
STARLINK-1344 2.9 02:19:05 13° SW 02:21:49 74° SSE 02:24:56 10° ENE
STARLINK-1343 2.9 02:19:25 13° WSW 02:22:09 74° SSE 02:25:17 10° ENE
CZ-4B R/B 4.3 02:20:20 10° ESE 02:22:29 18° ENE 02:24:40 10° NNE
STARLINK-1346 2.9 02:19:43 12° WSW 02:22:31 75° SSE 02:25:41 10° ENE
STARLINK-1328 2.8 02:20:05 12° WSW 02:22:51 75° SSE 02:25:58 10° ENE
Cosmos 1328 4.3 02:19:19 11° SSW 02:22:54 45° WNW 02:26:46 10° N
STARLINK-1354 2.8 02:20:22 12° WSW 02:23:09 76° SSE 02:26:17 10° ENE
STARLINK-1347 2.8 02:20:44 12° WSW 02:23:32 76° SSE 02:26:39 10° ENE
STARLINK-1357 2.8 02:21:01 12° WSW 02:23:50 76° SSE 02:26:57 10° ENE
STARLINK-1211 3.9 02:19:55 10° WNW 02:23:51 43° SW 02:27:47 10° SE
STARLINK-1335 2.8 02:21:22 12° WSW 02:24:11 77° SSE 02:27:19 10° ENE
STARLINK-1327 2.8 02:21:41 12° WSW 02:24:30 77° SSE 02:27:38 10° ENE
STARLINK-1371 3.2 02:21:31 12° SW 02:24:44 72° SSE 02:28:14 10° ENE
ERS-2 2.1 02:21:08 10° S 02:24:45 64° WSW 02:28:25 10° NNW
STARLINK-1340 2.8 02:22:01 12° WSW 02:24:53 78° SSE 02:28:00 10° ENE
STARLINK-1356 2.8 02:22:21 12° WSW 02:25:12 78° SSE 02:28:20 10° ENE
STARLINK-1345 2.8 02:22:41 12° WSW 02:25:33 79° SSE 02:28:41 10° ENE
STARLINK-1355 2.8 02:22:59 12° WSW 02:25:52 79° SSE 02:29:01 10° ENE
ERBS 4.1 02:23:00 10° NW 02:26:08 36° NNE 02:29:16 10° E
STARLINK-1321 2.8 02:23:18 12° WSW 02:26:12 79° SSE 02:29:20 10° ENE
STARLINK-1244 3.9 02:22:06 10° WNW 02:26:15 74° NNE 02:30:24 10° ESE
STARLINK-1358 2.8 02:23:39 11° WSW 02:26:34 80° SSE 02:29:42 10° ENE
STARLINK-1341 3.2 02:23:29 11° SW 02:26:46 75° SSE 02:30:17 10° ENE
STARLINK-1332 2.8 02:23:57 11° WSW 02:26:53 80° SSE 02:30:00 10° ENE
STARLINK-1348 2.8 02:24:18 11° WSW 02:27:14 81° SSE 02:30:22 10° ENE
IRS-1C 4.3 02:22:14 10° N 02:27:33 67° WNW 02:32:50 10° SSW
STARLINK-1330 2.8 02:24:36 11° WSW 02:27:34 81° SSE 02:30:42 10° ENE
STARLINK-1363 2.8 02:24:56 11° WSW 02:27:53 82° SSE 02:31:01 10° ENE
STARLINK-1337 2.8 02:25:15 11° WSW 02:28:14 82° SSE 02:31:21 10° ENE
STARLINK-1342 2.8 02:25:35 11° WSW 02:28:35 82° SSE 02:31:42 10° ENE
STARLINK-1374 3.2 02:25:26 11° WSW 02:28:49 77° SSE 02:32:20 10° ENE
STARLINK-1245 4.0 02:24:56 10° WNW 02:28:50 40° SW 02:32:43 10° SSE
STARLINK-1364 2.8 02:25:55 11° WSW 02:28:55 83° SSE 02:32:03 10° ENE
STARLINK-1376 2.8 02:26:15 11° WSW 02:29:16 83° SSE 02:32:24 10° ENE
STARLINK-1360 2.8 02:26:30 11° WSW 02:29:32 84° SSE 02:32:40 10° ENE
STARLINK-1361 2.8 02:26:56 11° WSW 02:29:58 84° SSE 02:33:06 10° ENE
STARLINK-1367 2.9 02:27:10 10° WSW 02:30:14 84° SSE 02:33:25 10° ENE
STARLINK-1366 2.8 02:27:33 10° WSW 02:30:37 85° SSE 02:33:45 10° ENE
STARLINK-1339 3.2 02:27:27 10° WSW 02:30:55 79° SSE 02:34:25 10° ENE
STARLINK-1138 3.8 02:27:05 10° WNW 02:31:14 77° NNE 02:35:23 10° ESE
SL-4 R/B 2.8 02:26:46 10° W 02:31:33 62° N 02:36:07 10° ENE
Cosmos 2297 Rocket 3.2 02:27:22 10° NW 02:32:02 27° WSW 02:36:41 10° SSW
STARLINK-1377 3.2 02:29:30 10° WSW 02:33:00 81° SSE 02:36:32 10° ENE
STARLINK-1233 4.1 02:29:56 10° WNW 02:33:46 37° SW 02:37:36 10° SSE
STARLINK-1203 3.8 02:29:54 10° WNW 02:34:07 80° NNE 02:38:20 10° ESE
STARLINK-1353 3.1 02:31:23 10° WSW 02:34:52 83° SSE 02:38:21 10° ENE
Cosmos 2082 4.0 02:30:35 10° NW 02:36:00 47° WSW 02:41:21 10° S
STARLINK-1143 3.8 02:32:04 10° WNW 02:36:14 81° NNE 02:40:23 10° ESE
STARLINK-1375 3.1 02:33:14 10° WSW 02:36:43 85° SSE 02:40:13 10° ENE
Cosmos 540 Rocket 3.5 02:33:09 10° SSW 02:38:18 90° SE 02:43:29 10° NNE
STARLINK-1204 4.2 02:34:57 10° WNW 02:38:44 35° SW 02:42:30 10° SSE
ATLAS CENTAUR R/B 3.8 02:36:16 10° WNW 02:38:49 15° NNW 02:41:16 10° N
STARLINK-1350 3.1 02:35:38 10° WSW 02:39:07 88° SSE 02:42:37 10° ENE
FALCON 9 DEB 3.7 02:36:15 10° W 02:39:39 57° NNW 02:43:05 10° ENE
STARLINK-1241 3.7 02:37:02 10° WNW 02:41:13 85° NNE 02:45:22 10° ESE
STARLINK-29 4.0 02:38:22 10° W 02:41:27 43° NNW 02:44:31 10° ENE
Cosmos 1455 4.1 02:39:25 10° NW 02:41:29 14° W 02:43:32 10° WSW
STARLINK-1352 3.2 02:38:01 10° WSW 02:41:33 89° NNW 02:45:05 10° ENE
Landsat 5 3.7 02:37:09 10° SSE 02:41:38 82° WSW 02:46:12 10° NNW
CZ-2D R/B 3.5 02:37:52 10° NNE 02:41:59 82° WNW 02:46:11 10° SSW
Cosmos 2278 3.8 02:37:09 10° SSW 02:42:47 82° ESE 02:48:29 10° NNE
USA 234 4.1 02:37:07 10° ENE 02:43:17 42° SE 02:49:26 10° SSW
STARLINK-1238 4.3 02:39:57 10° WNW 02:43:40 32° SW 02:47:21 10° SSE
STARLINK-1368 3.2 02:40:12 10° WSW 02:43:43 87° NNW 02:47:15 10° ENE
Meteor 1-28 Rocket 3.7 02:41:05 10° S 02:44:41 41° W 02:48:17 10° NNW
Meteor 1-11 4.4 02:39:19 10° SSW 02:44:53 61° WNW 02:50:27 10° N
SL-16 R/B 4.2 02:42:11 10° WSW 02:45:28 15° W 02:48:46 10° NW
STARLINK-1239 3.7 02:42:01 10° WNW 02:46:11 89° NNE 02:50:20 10° ESE
Cosmos 2074 Rocket 4.2 02:42:03 10° SSW 02:48:16 62° WNW 02:54:33 10° N
